Regional Weather Roundup
Issued by NWS Charleston, WV

Home | Current Version | Previous Version | Graphics & Text | Print | Product List | Glossary On
Versions: 1 2 3 4 5 6 7 8 9 10 11 12 13 14 15 16 17 18 19 20 21 22 23 24 25 26 27 28 29 30 31 32 33 34 35 36 37 38 39 40 41 42 43 44 45 46 47 48 49 50
000
ASUS41 KRLX 300510
RWRRLX
West Virginia Regional Weather Roundup
National Weather Service Charleston WV
100 AM EDT MON MAR 30 2015

Note: "fair" indicates few or no clouds below 12,000 feet with no
significant weather and/or obstructions to visibility.

WVZ003-300600-
Northern Panhandle of West Virginia

CITY           SKY/WX    TMP DP  RH WIND       PRES   REMARKS
WHEELING       CLOUDY    41  30  65 W16G28    29.94S
$$

WVZ009-300600-
Northwest West Virginia

CITY           SKY/WX    TMP DP  RH WIND       PRES   REMARKS
PARKERSBURG    CLOUDY    47  21  35 W8        30.01R
$$

WVZ006-300600-
Western West Virginia

CITY           SKY/WX    TMP DP  RH WIND       PRES   REMARKS
HUNTINGTON     LGT RAIN  49  25  39 W6        29.99R
$$

WVZ015-300600-
West Central West Virginia

CITY           SKY/WX    TMP DP  RH WIND       PRES   REMARKS
CHARLESTON     LGT RAIN  52  12  20 SW6       29.97F
$$

WVZ022-031-300600-
North Central West Virginia

CITY           SKY/WX    TMP DP  RH WIND       PRES   REMARKS
CLARKSBURG     LGT RAIN  47  24  40 SW26G35   30.00R
MORGANTOWN     CLOUDY    46  20  35 SW17G30   29.97S
$$

WVZ025-035-042-045-300600-
Southern West Virginia

CITY           SKY/WX    TMP DP  RH WIND       PRES   REMARKS
BECKLEY        CLOUDY    45   9  23 S6        30.00F
LOGAN          CLOUDY    50  12  22 S8        29.95F
BLUEFIELD      MOCLDY    47  14  26 W9        30.02F
LEWISBURG      CLOUDY    41  16  36 SW5       30.02F
$$

WVZ047-300600-
Northern Mountains of West Virginia

CITY           SKY/WX    TMP DP  RH WIND       PRES   REMARKS
ELKINS         CLOUDY    44  11  26 CALM      29.97F
$$

WVZ052-300600-
Eastern Panhandle of West Virginia

CITY           SKY/WX    TMP DP  RH WIND       PRES   REMARKS
MARTINSBURG    CLOUDY    44  18  35 S8        30.02F
PETERSBURG     CLOUDY    46   3  17 S5G16     29.97F
$$


USA.gov is the U.S. government's official web portal to all federal, state and local government web resources and services.